VE7SML-6 Weather Reports


Display with metric or nautical units.
time (UTC)temp
F
wind
direction
speed
MPH
gust
MPH
rain 1hr
in
rain 24hr
in
rain mn
in
humidity
%
barometer
mb
20260504090125 54 22 0.0 0.0 0.00 0.00 0.00 49 1111.0
20260504081743 55 22 0.0 6.0 0.00 0.00 0.00 49 1111.0
20260504081242 55 22 2.0 7.0 0.00 0.00 0.00 49 1111.0
20260504080742 55 22 4.0 5.0 0.00 0.00 0.00 49 1111.0
20260504080242 56 22 0.0 2.0 0.00 0.00 0.00 49 1111.0
20260504070238 57 22 0.0 3.0 0.00 0.00 0.00 49 1111.0
20260504060235 56 0 0.0 6.0 0.00 0.00 0.00 51 1111.0
20260504045731 60 0 2.0 3.0 0.00 0.00 0.00 51 1111.0
20260504045231 60 0 0.0 5.0 0.00 0.00 0.00 51 1111.0
20260504044231 61 0 2.0 5.0 0.00 0.00 0.00 51 1111.0
20260504043730 61 22 3.0 3.0 0.00 0.00 0.00 51 1111.0
20260504043230 62 0 2.0 2.0 0.00 0.00 0.00 51 1111.0
20260504042229 63 0 0.0 7.0 0.00 0.00 0.00 52 1111.0
20260504041729 63 22 0.0 3.0 0.00 0.00 0.00 52 1111.0
20260504041229 64 0 0.0 8.0 0.00 0.00 0.00 52 1111.0
20260504040729 64 22 0.0 9.0 0.00 0.00 0.00 52 1111.0
20260504040228 64 22 0.0 11.0 0.00 0.00 0.00 53 1111.0
20260504035728 64 0 0.0 7.0 0.00 0.00 0.00 53 1111.0
20260504035228 65 0 3.0 8.0 0.00 0.00 0.00 53 1111.0
20260504034727 66 0 0.0 10.0 0.00 0.00 0.00 53 1111.0
20260504034227 66 22 4.0 4.0 0.00 0.00 0.00 53 1111.0
20260504033727 67 0 4.0 8.0 0.00 0.00 0.00 53 1111.0
20260504032726 69 0 0.0 9.0 0.00 0.00 0.00 54 1111.0
20260504032226 70 0 1.0 7.0 0.00 0.00 0.00 54 1111.0
20260504031726 71 0 0.0 5.0 0.00 0.00 0.00 54 1111.0
20260504025725 74 0 0.0 14.0 0.00 0.00 0.00 55 1111.0
20260504025224 75 0 0.0 6.0 0.00 0.00 0.00 56 1111.0
20260504024224 75 0 0.0 6.0 0.00 0.00 0.00 56 1111.0
20260504023723 75 0 0.0 7.0 0.00 0.00 0.00 56 1111.0
20260504022723 76 247 5.0 10.0 0.00 0.00 0.00 56 1111.0
20260504022223 76 315 0.0 15.0 0.00 0.00 0.00 56 1111.0
20260504020722 76 247 5.0 7.0 0.00 0.00 0.00 57 1111.0
20260504020222 76 247 4.0 4.0 0.00 0.00 0.00 56 1111.0
20260504015221 76 0 4.0 6.0 0.00 0.00 0.00 56 1111.0
20260504013721 77 0 0.0 2.0 0.00 0.00 0.00 56 1111.0
20260504013220 78 0 0.0 6.0 0.00 0.00 0.00 56 1111.0
20260504012720 78 0 0.0 5.0 0.00 0.00 0.00 56 1111.0
20260504012219 78 337 0.0 3.0 0.00 0.00 0.00 56 1111.0
20260504011719 78 0 0.0 4.0 0.00 0.00 0.00 56 1111.0
20260504011219 78 0 0.0 4.0 0.00 0.00 0.00 56 1111.0
20260504010718 78 337 0.0 3.0 0.00 0.00 0.00 56 1111.0
20260504010218 78 0 0.0 4.0 0.00 0.00 0.00 55 1111.0
20260504005718 78 0 0.0 5.0 0.00 0.00 0.00 55 1111.0
20260504005218 78 0 0.0 11.0 0.00 0.00 0.00 54 1111.0
20260504004717 79 0 1.0 10.0 0.00 0.00 0.00 55 1111.0
20260504003717 78 0 3.0 9.0 0.00 0.00 0.00 55 1111.0
20260504003218 78 337 0.0 10.0 0.00 0.00 0.00 55 1111.0
20260504002716 78 0 7.0 15.0 0.00 0.00 0.00 54 1111.0
20260504001216 78 0 0.0 9.0 0.00 0.00 0.00 54 1111.0
20260504000215 78 0 0.0 10.0 0.00 0.00 0.00 54 1111.0
20260503235215 78 0 4.0 18.0 0.00 0.00 0.00 55 1111.0
20260503234715 78 0 0.0 10.0 0.00 0.00 0.00 55 1111.0
20260503234215 77 0 2.0 9.0 0.00 0.00 0.00 54 1111.0
20260503233714 77 247 7.0 14.0 0.00 0.00 0.00 54 1111.0
20260503233214 77 247 5.0 7.0 0.00 0.00 0.00 54 1111.0
20260503231713 77 247 1.0 15.0 0.00 0.00 0.00 54 1111.0
20260503231213 77 247 15.0 15.0 0.00 0.00 0.00 53 1111.0
20260503230713 76 247 7.0 8.0 0.00 0.00 0.00 54 1111.0
20260503230212 76 247 0.0 0.0 0.00 0.00 0.00 53 1111.0
20260503224211 76 247 6.0 11.0 0.00 0.00 0.00 52 1111.0
20260503223211 76 247 11.0 14.0 0.00 0.00 0.00 52 1111.0
20260503220709 76 0 1.0 11.0 0.00 0.00 0.00 52 1111.0
20260503220208 76 0 6.0 6.0 0.00 0.00 0.00 51 1111.0
20260503215209 76 247 0.0 14.0 0.00 0.00 0.00 51 1111.0
20260503214208 76 247 6.0 6.0 0.00 0.00 0.00 51 1111.0
20260503212707 75 247 0.0 8.0 0.00 0.00 0.00 51 1111.0
20260503212207 75 247 0.0 5.0 0.00 0.00 0.00 51 1111.0
20260503211706 75 247 0.0 9.0 0.00 0.00 0.00 51 1111.0
20260503211206 75 247 3.0 10.0 0.00 0.00 0.00 51 1111.0
20260503210706 75 247 10.0 10.0 0.00 0.00 0.00 51 1111.0
20260503204704 74 247 0.0 6.0 0.00 0.00 0.00 52 1111.0
20260503203703 74 247 0.0 2.0 0.00 0.00 0.00 52 1111.0
20260503202702 74 247 0.0 8.0 0.00 0.00 0.00 52 1111.0
20260503202203 73 247 0.0 5.0 0.00 0.00 0.00 53 1111.0
20260503201702 73 247 0.0 12.0 0.00 0.00 0.00 53 1111.0
20260503200703 73 247 0.0 9.0 0.00 0.00 0.00 53 1111.0
20260503200201 73 247 3.0 4.0 0.00 0.00 0.00 53 1111.0
20260503194700 73 247 0.0 3.0 0.00 0.00 0.00 53 1111.0
20260503193700 73 247 0.0 7.0 0.00 0.00 0.00 53 1111.0
20260503192659 73 247 0.0 4.0 0.00 0.00 0.00 53 1111.0
20260503191659 72 247 0.0 6.0 0.00 0.00 0.00 53 1111.0
20260503191158 72 247 0.0 4.0 0.00 0.00 0.00 53 1111.0
20260503190158 72 247 4.0 6.0 0.00 0.00 0.00 53 1111.0
20260503185657 72 247 0.0 8.0 0.00 0.00 0.00 52 1111.0
20260503185157 72 247 0.0 4.0 0.00 0.00 0.00 52 1111.0
20260503184157 72 247 2.0 10.0 0.00 0.00 0.00 52 1111.0
20260503183656 72 247 0.0 7.0 0.00 0.00 0.00 52 1111.0
20260503181655 72 247 0.0 9.0 0.00 0.00 0.00 52 1111.0
20260503181155 71 247 0.0 5.0 0.00 0.00 0.00 52 1111.0
20260503180655 71 22 0.0 10.0 0.00 0.00 0.00 52 1111.0
20260503180154 71 247 0.0 2.0 0.00 0.00 0.00 52 1111.0
20260503175654 70 247 0.0 6.0 0.00 0.00 0.00 52 1111.0
20260503174654 70 0 0.0 5.0 0.00 0.00 0.00 52 1111.0
20260503174153 69 0 5.0 6.0 0.00 0.00 0.00 52 1111.0
20260503150644 55 157 0.0 0.0 0.00 0.00 0.00 50 1111.0
20260503150144 54 157 0.0 0.0 0.00 0.00 0.00 50 1111.0
20260503140142 45 157 0.0 3.0 0.00 0.00 0.00 51 1111.0
20260503131138 44 157 0.0 7.0 0.00 0.00 0.00 51 1111.0
20260503130638 44 157 0.0 6.0 0.00 0.00 0.00 51 1111.0
20260503100127 49 157 0.0 0.0 0.00 0.00 0.00 51 1111.0